NPV7634 LIPE-EGNX

Flight info

Callsign NPV7634
Flight time 1h 46m
Altitude 34000
Route LUPOS DCT OSBUL DCT ABESI DCT UTAVO DCT HOC DCT LUL DCT RLP DCT ROTSI DCT KOTUN DCT NINAL DCT ABNUR DCT DIMAL DCT ALESO T420 HEMEL
Aircraft MD11/H-SDE1E2E3FGHIJ2J3J4J5M1RWXY/LB1D1

Departure

Time 2026-05-04 17:28
Airport Bologna Guglielmo Marconi Airport (LIPE)

Arrival

Time 2026-05-04 19:15
Airport East Midlands Airport (EGNX)
Time Latitude Longitude Altitude Speed Heading
2026-05-04 16:50 44.53420 11.28226 138 ft 0 kts 206°
2026-05-04 17:10 44.53447 11.28245 138 ft 4 kts 206°
2026-05-04 17:11 44.53471 11.28262 138 ft 4 kts 206°
2026-05-04 17:11 44.53492 11.28276 138 ft 4 kts 193°
2026-05-04 17:11 44.53520 11.28256 138 ft 4 kts 108°
2026-05-04 17:12 44.53529 11.28223 138 ft 2 kts 116°
2026-05-04 17:12 44.53529 11.28220 138 ft 0 kts 117°
2026-05-04 17:16 44.53526 11.28229 138 ft 3 kts 116°
2026-05-04 17:16 44.53546 11.28285 138 ft 5 kts 335°
2026-05-04 17:17 44.53578 11.28222 138 ft 11 kts 297°
2026-05-04 17:17 44.53761 11.27715 138 ft 26 kts 297°
2026-05-04 17:18 44.53845 11.27480 138 ft 24 kts 296°
2026-05-04 17:18 44.53859 11.27442 138 ft 0 kts 296°
2026-05-04 17:19 44.53863 11.27430 138 ft 1 kts 296°
2026-05-04 17:19 44.53872 11.27404 138 ft 2 kts 296°
2026-05-04 17:20 44.53883 11.27372 138 ft 2 kts 296°
2026-05-04 17:20 44.53895 11.27337 138 ft 2 kts 295°
2026-05-04 17:20 44.53902 11.27317 138 ft 2 kts 295°
2026-05-04 17:21 44.53910 11.27294 138 ft 0 kts 295°
2026-05-04 17:23 44.53862 11.27436 138 ft 0 kts 295°
2026-05-04 17:26 44.53871 11.27411 138 ft 5 kts 295°
2026-05-04 17:26 44.54112 11.27270 137 ft 6 kts 69°
2026-05-04 17:27 44.53880 11.27929 136 ft 107 kts 117°
2026-05-04 17:27 44.52917 11.30670 709 ft 173 kts 117°
2026-05-04 17:28 44.52857 11.33861 2353 ft 182 kts 49°
2026-05-04 17:29 44.56623 11.36725 4289 ft 225 kts 24°
2026-05-04 17:29 44.60954 11.39489 6750 ft 232 kts 25°
2026-05-04 17:30 44.65544 11.41936 8663 ft 251 kts
2026-05-04 17:31 44.68487 11.39405 9236 ft 266 kts 288°
2026-05-04 17:31 44.66626 11.32901 11351 ft 259 kts 221°
2026-05-04 17:32 44.63946 11.29405 12854 ft 267 kts 223°
2026-05-04 17:33 44.59354 11.24116 14122 ft 321 kts 218°
2026-05-04 17:33 44.57489 11.22118 14258 ft 346 kts 218°
2026-05-04 17:34 44.53057 11.13628 15647 ft 375 kts 255°
2026-05-04 17:34 44.52611 11.10012 16311 ft 379 kts 264°
2026-05-04 17:35 44.52262 10.98812 18264 ft 388 kts 267°
2026-05-04 17:35 44.52006 10.91211 19337 ft 394 kts 266°
2026-05-04 17:35 44.51849 10.87371 19858 ft 396 kts 266°
2026-05-04 17:36 44.51679 10.83519 20355 ft 399 kts 265°
2026-05-04 17:36 44.51498 10.79626 20859 ft 402 kts 265°
2026-05-04 17:36 44.51314 10.75707 21378 ft 405 kts 265°
2026-05-04 17:36 44.51142 10.71759 21873 ft 408 kts 266°
2026-05-04 17:37 44.51158 10.67816 22375 ft 412 kts 273°
2026-05-04 17:37 44.51594 10.63832 22906 ft 416 kts 282°
2026-05-04 17:37 44.52556 10.59987 23404 ft 422 kts 293°
2026-05-04 17:37 44.54070 10.56374 23915 ft 429 kts 304°
2026-05-04 17:38 44.56024 10.53258 24382 ft 434 kts 314°
2026-05-04 17:38 44.58393 10.50587 24883 ft 439 kts 322°
2026-05-04 17:38 44.60964 10.48220 25362 ft 443 kts 325°
2026-05-04 17:38 44.63601 10.45960 25868 ft 445 kts 326°
2026-05-04 17:39 44.68908 10.41387 26844 ft 450 kts 324°
2026-05-04 17:39 44.71561 10.39031 27335 ft 452 kts 324°
2026-05-04 17:39 44.74214 10.36638 27752 ft 456 kts 324°
2026-05-04 17:40 44.76886 10.34208 28189 ft 458 kts 324°
2026-05-04 17:40 44.79567 10.31759 28667 ft 461 kts 324°
2026-05-04 17:40 44.82266 10.29288 29064 ft 464 kts 323°
2026-05-04 17:40 44.84949 10.26829 29462 ft 467 kts 323°
2026-05-04 17:41 44.87682 10.24324 29889 ft 470 kts 323°
2026-05-04 17:41 44.90436 10.21803 30264 ft 473 kts 323°
2026-05-04 17:41 44.93199 10.19275 30711 ft 473 kts 324°
2026-05-04 17:41 44.95965 10.16744 31089 ft 474 kts 323°
2026-05-04 17:42 44.98724 10.14218 31553 ft 472 kts 323°
2026-05-04 17:42 45.01473 10.11698 32028 ft 470 kts 323°
2026-05-04 17:42 45.04218 10.09179 32483 ft 469 kts 323°
2026-05-04 17:42 45.06946 10.06671 32897 ft 468 kts 323°
2026-05-04 17:43 45.09674 10.04160 33293 ft 466 kts 323°
2026-05-04 17:43 45.12382 10.01665 33695 ft 464 kts 322°
2026-05-04 17:43 45.15085 9.99170 33994 ft 465 kts 322°
2026-05-04 17:43 45.17797 9.96662 34040 ft 467 kts 322°
2026-05-04 17:44 45.23249 9.91615 34050 ft 467 kts 322°
2026-05-04 17:44 45.28658 9.86599 34058 ft 467 kts 322°
2026-05-04 17:45 45.34098 9.81541 34079 ft 467 kts 322°
2026-05-04 17:45 45.39550 9.76459 34115 ft 468 kts 322°
2026-05-04 17:46 45.44992 9.71374 34150 ft 468 kts 322°
2026-05-04 17:46 45.50441 9.66271 34171 ft 468 kts 322°
2026-05-04 17:47 45.55874 9.61139 34183 ft 468 kts 322°
2026-05-04 17:47 45.61282 9.56024 34185 ft 470 kts 322°
2026-05-04 17:48 45.66772 9.50840 34173 ft 470 kts 322°
2026-05-04 17:48 45.72190 9.45718 34083 ft 470 kts 322°
2026-05-04 17:49 45.77637 9.40559 34072 ft 469 kts 322°
2026-05-04 17:49 45.83090 9.35377 34079 ft 470 kts 322°
2026-05-04 17:50 45.88543 9.30184 34080 ft 470 kts 322°
2026-05-04 17:50 45.93992 9.24988 34078 ft 470 kts 322°
2026-05-04 17:51 45.99434 9.19780 34074 ft 471 kts 322°
2026-05-04 17:51 46.04880 9.14557 34092 ft 471 kts 322°
2026-05-04 17:52 46.09415 9.10210 34079 ft 471 kts 322°
2026-05-04 17:52 46.14983 9.05227 34048 ft 474 kts 331°
2026-05-04 17:53 46.18095 9.03570 34050 ft 481 kts 343°
2026-05-04 17:53 46.21395 9.02707 34059 ft 486 kts 351°
2026-05-04 17:53 46.28169 9.02137 34061 ft 488 kts 354°
2026-05-04 17:54 46.34940 9.01605 34073 ft 486 kts 352°
2026-05-04 17:54 46.41481 8.99811 34112 ft 477 kts 335°
2026-05-04 17:55 46.44453 8.97745 34113 ft 472 kts 324°
2026-05-04 17:55 46.47097 8.94972 34108 ft 467 kts 315°
2026-05-04 17:55 46.51824 8.88499 34122 ft 467 kts 312°
2026-05-04 17:56 46.56557 8.82044 34116 ft 468 kts 314°
2026-05-04 17:56 46.61436 8.75775 34107 ft 469 kts 315°
2026-05-04 17:57 46.66375 8.69560 34098 ft 470 kts 315°
2026-05-04 17:57 46.71299 8.63357 34095 ft 470 kts 315°
2026-05-04 17:58 46.76243 8.57093 34059 ft 471 kts 315°
2026-05-04 17:58 46.81185 8.50832 34060 ft 470 kts 315°
2026-05-04 17:59 46.86117 8.44566 34023 ft 470 kts 314°
2026-05-04 18:00 46.93522 8.35123 34000 ft 472 kts 314°
2026-05-04 18:00 46.98456 8.28802 33991 ft 471 kts 314°
2026-05-04 18:01 47.03385 8.22476 34032 ft 471 kts 314°
2026-05-04 18:01 47.08318 8.16122 34023 ft 473 kts 314°
2026-05-04 18:02 47.15724 8.06493 34027 ft 475 kts 314°
2026-05-04 18:02 47.20640 8.00102 34028 ft 475 kts 314°
2026-05-04 18:03 47.25602 7.93679 34026 ft 475 kts 314°
2026-05-04 18:03 47.30549 7.87229 34028 ft 475 kts 314°
2026-05-04 18:04 47.35495 7.80765 34020 ft 475 kts 314°
2026-05-04 18:05 47.42885 7.71059 34004 ft 475 kts 312°
2026-05-04 18:05 47.47006 7.63626 33997 ft 462 kts 294°
2026-05-04 18:05 47.48296 7.59323 33997 ft 455 kts 283°
2026-05-04 18:06 47.49770 7.50295 34008 ft 452 kts 277°
2026-05-04 18:06 47.51034 7.41172 34025 ft 453 kts 278°
2026-05-04 18:07 47.52442 7.32067 34025 ft 454 kts 278°
2026-05-04 18:07 47.53925 7.22976 34016 ft 454 kts 279°
2026-05-04 18:08 47.55409 7.13937 34010 ft 455 kts 279°
2026-05-04 18:08 47.56891 7.04840 34000 ft 455 kts 278°
2026-05-04 18:09 47.59831 6.86617 34016 ft 455 kts 278°
2026-05-04 18:10 47.61289 6.77491 33997 ft 455 kts 278°
2026-05-04 18:10 47.62743 6.68355 34008 ft 457 kts 278°
2026-05-04 18:11 47.64198 6.59188 34008 ft 458 kts 278°
2026-05-04 18:11 47.65640 6.50000 34000 ft 457 kts 278°
2026-05-04 18:12 47.67072 6.40820 33997 ft 456 kts 278°
2026-05-04 18:12 47.68471 6.31700 33996 ft 457 kts 279°
2026-05-04 18:13 47.70249 6.22564 34003 ft 465 kts 282°
2026-05-04 18:14 47.73236 6.08935 34000 ft 463 kts 283°
2026-05-04 18:14 47.75170 5.99820 34005 ft 462 kts 282°
2026-05-04 18:15 47.78984 5.81554 34011 ft 464 kts 282°
2026-05-04 18:16 47.80890 5.72380 34003 ft 463 kts 282°
2026-05-04 18:16 47.82790 5.63212 34004 ft 464 kts 282°
2026-05-04 18:17 47.85606 5.49495 34021 ft 464 kts 282°
2026-05-04 18:18 47.88421 5.35683 33991 ft 465 kts 282°
2026-05-04 18:18 47.90426 5.26521 33991 ft 469 kts 289°
2026-05-04 18:19 47.96338 5.14669 33983 ft 483 kts 310°
2026-05-04 18:19 48.01071 5.07515 33975 ft 483 kts 309°
2026-05-04 18:20 48.05657 5.00223 33970 ft 481 kts 307°
2026-05-04 18:20 48.10139 4.92820 33963 ft 480 kts 307°
2026-05-04 18:21 48.14588 4.85384 33969 ft 481 kts 307°
2026-05-04 18:21 48.19048 4.77919 33956 ft 480 kts 307°
2026-05-04 18:22 48.23478 4.70490 33981 ft 481 kts 307°
2026-05-04 18:22 48.27911 4.63033 33954 ft 477 kts 307°
2026-05-04 18:23 48.32314 4.55569 33950 ft 477 kts 307°
2026-05-04 18:23 48.36711 4.48113 33949 ft 478 kts 306°
2026-05-04 18:24 48.41132 4.40615 33943 ft 478 kts 306°
2026-05-04 18:24 48.45547 4.33112 33943 ft 479 kts 306°
2026-05-04 18:25 48.49960 4.25591 33944 ft 478 kts 306°
2026-05-04 18:25 48.54343 4.18103 33941 ft 479 kts 306°
2026-05-04 18:26 48.58746 4.10554 33944 ft 479 kts 306°
2026-05-04 18:26 48.63154 4.02973 33940 ft 480 kts 306°
2026-05-04 18:27 48.67558 3.95383 33938 ft 480 kts 306°
2026-05-04 18:27 48.72079 3.87929 33939 ft 482 kts 309°
2026-05-04 18:28 48.76848 3.80762 33939 ft 483 kts 310°
2026-05-04 18:28 48.81623 3.73696 33942 ft 483 kts 310°
2026-05-04 18:29 48.86415 3.66550 33938 ft 480 kts 310°
2026-05-04 18:29 48.91188 3.59389 33939 ft 485 kts 310°
2026-05-04 18:30 48.98342 3.48584 33948 ft 481 kts 310°
2026-05-04 18:31 49.03084 3.41406 33948 ft 480 kts 310°
2026-05-04 18:31 49.07810 3.34230 33939 ft 480 kts 310°
2026-05-04 18:32 49.12538 3.27031 33935 ft 480 kts 310°
2026-05-04 18:32 49.17259 3.19826 33936 ft 480 kts 310°
2026-05-04 18:33 49.21987 3.12584 33935 ft 480 kts 310°
2026-05-04 18:33 49.26684 3.05372 33944 ft 477 kts 311°
2026-05-04 18:34 49.31358 2.98129 33933 ft 478 kts 310°
2026-05-04 18:34 49.36018 2.90866 33937 ft 478 kts 310°
2026-05-04 18:35 49.40690 2.83606 33937 ft 478 kts 310°
2026-05-04 18:35 49.45369 2.76338 33937 ft 478 kts 310°
2026-05-04 18:36 49.50003 2.69122 33942 ft 478 kts 310°
2026-05-04 18:36 49.54674 2.61822 33939 ft 479 kts 311°
2026-05-04 18:37 49.59412 2.54602 33939 ft 480 kts 315°
2026-05-04 18:37 49.64629 2.48124 33939 ft 482 kts 320°
2026-05-04 18:38 49.70000 2.41927 33940 ft 482 kts 320°
2026-05-04 18:38 49.75355 2.35691 33937 ft 482 kts 320°
2026-05-04 18:39 49.80697 2.29384 33937 ft 482 kts 320°
2026-05-04 18:39 49.86009 2.23070 33942 ft 480 kts 320°
2026-05-04 18:40 49.91299 2.16762 33942 ft 479 kts 320°
2026-05-04 18:40 49.96540 2.10494 33949 ft 479 kts 320°
2026-05-04 18:41 50.01827 2.04157 33943 ft 480 kts 320°
2026-05-04 18:41 50.07114 1.97804 33951 ft 480 kts 319°
2026-05-04 18:42 50.11500 1.92520 33949 ft 479 kts 319°
2026-05-04 18:42 50.16770 1.86144 33947 ft 479 kts 319°
2026-05-04 18:43 50.21729 1.79209 33966 ft 478 kts 313°
2026-05-04 18:43 50.26450 1.71889 33969 ft 478 kts 312°
2026-05-04 18:44 50.31166 1.64551 33982 ft 478 kts 312°
2026-05-04 18:44 50.35905 1.57245 33986 ft 478 kts 313°
2026-05-04 18:45 50.40647 1.49946 33986 ft 478 kts 313°
2026-05-04 18:45 50.45353 1.42683 33989 ft 477 kts 313°
2026-05-04 18:46 50.50033 1.35332 33992 ft 476 kts 311°
2026-05-04 18:46 50.54544 1.27729 33993 ft 475 kts 310°
2026-05-04 18:47 50.59069 1.20121 33987 ft 476 kts 311°
2026-05-04 18:47 50.63726 1.12713 33986 ft 476 kts 313°
2026-05-04 18:48 50.68412 1.05346 33998 ft 474 kts 313°
2026-05-04 18:48 50.73080 0.97970 34006 ft 474 kts 312°
2026-05-04 18:49 50.77731 0.90580 33998 ft 475 kts 312°
2026-05-04 18:49 50.82388 0.83149 33994 ft 476 kts 312°
2026-05-04 18:50 50.87030 0.75710 33995 ft 476 kts 311°
2026-05-04 18:50 50.91664 0.68241 33998 ft 475 kts 312°
2026-05-04 18:51 50.96293 0.60777 33997 ft 474 kts 312°
2026-05-04 18:51 51.00901 0.53322 33996 ft 474 kts 312°
2026-05-04 18:52 51.05523 0.45835 34006 ft 475 kts 312°
2026-05-04 18:52 51.10249 0.38438 33999 ft 477 kts 314°
2026-05-04 18:53 51.15007 0.31177 33998 ft 477 kts 314°
2026-05-04 18:53 51.19805 0.23844 33991 ft 478 kts 314°
2026-05-04 18:54 51.24593 0.16493 33937 ft 474 kts 314°
2026-05-04 18:54 51.26946 0.12872 33522 ft 467 kts 314°
2026-05-04 18:54 51.29286 0.09261 32944 ft 468 kts 313°
2026-05-04 18:54 51.31644 0.05641 32326 ft 470 kts 315°
2026-05-04 18:55 51.34211 0.02355 31758 ft 475 kts 322°
2026-05-04 18:55 51.39856 -0.03244 30537 ft 480 kts 328°
2026-05-04 18:55 51.42755 -0.05887 29911 ft 481 kts 328°
2026-05-04 18:56 51.45670 -0.08553 29232 ft 482 kts 328°
2026-05-04 18:56 51.48572 -0.11245 28572 ft 482 kts 328°
2026-05-04 18:56 51.51459 -0.13960 27922 ft 478 kts 328°
2026-05-04 18:56 51.54301 -0.16662 27297 ft 473 kts 328°
2026-05-04 18:57 51.57127 -0.19365 26668 ft 469 kts 327°
2026-05-04 18:57 51.59909 -0.22034 26079 ft 463 kts 327°
2026-05-04 18:57 51.62548 -0.24569 25495 ft 458 kts 327°
2026-05-04 18:57 51.65269 -0.27189 24903 ft 454 kts 327°
2026-05-04 18:58 51.67967 -0.29796 24277 ft 450 kts 327°
2026-05-04 18:58 51.70645 -0.32383 23656 ft 446 kts 327°
2026-05-04 18:58 51.73287 -0.34935 23142 ft 441 kts 327°
2026-05-04 18:58 51.75914 -0.37476 22719 ft 439 kts 328°
2026-05-04 18:59 51.78521 -0.39998 22311 ft 437 kts 328°
2026-05-04 18:59 51.81117 -0.42513 22073 ft 433 kts 327°
2026-05-04 18:59 51.83699 -0.45016 21991 ft 432 kts 327°
2026-05-04 18:59 51.86273 -0.47516 21943 ft 431 kts 327°
2026-05-04 19:00 51.88845 -0.50018 21861 ft 431 kts 327°
2026-05-04 19:00 51.91413 -0.52518 21795 ft 430 kts 327°
2026-05-04 19:00 51.93984 -0.55026 21181 ft 430 kts 327°
2026-05-04 19:00 51.96524 -0.57503 20536 ft 424 kts 327°
2026-05-04 19:01 51.99044 -0.59963 19915 ft 420 kts 327°
2026-05-04 19:01 52.01532 -0.62394 19310 ft 417 kts 327°
2026-05-04 19:01 52.04007 -0.64815 18719 ft 412 kts 327°
2026-05-04 19:01 52.06451 -0.67211 18108 ft 409 kts 327°
2026-05-04 19:02 52.08875 -0.69591 17451 ft 404 kts 327°
2026-05-04 19:02 52.11265 -0.71939 16842 ft 399 kts 327°
2026-05-04 19:02 52.13630 -0.74267 16266 ft 395 kts 327°
2026-05-04 19:02 52.15968 -0.76569 15704 ft 390 kts 327°
2026-05-04 19:03 52.18275 -0.78844 15153 ft 386 kts 327°
2026-05-04 19:03 52.20559 -0.81101 14609 ft 382 kts 327°
2026-05-04 19:03 52.22817 -0.83334 14055 ft 377 kts 328°
2026-05-04 19:03 52.25019 -0.85520 13506 ft 373 kts 327°
2026-05-04 19:04 52.27250 -0.87744 12970 ft 370 kts 327°
2026-05-04 19:04 52.29442 -0.89931 12688 ft 368 kts 327°
2026-05-04 19:04 52.31573 -0.92055 12548 ft 354 kts 327°
2026-05-04 19:04 52.33619 -0.94089 12437 ft 335 kts 327°
2026-05-04 19:05 52.35559 -0.96021 12324 ft 318 kts 327°
2026-05-04 19:05 52.37398 -0.97852 12208 ft 301 kts 327°
2026-05-04 19:05 52.39170 -0.99618 12014 ft 297 kts 327°
2026-05-04 19:05 52.41021 -1.01073 11612 ft 297 kts 343°
2026-05-04 19:06 52.43054 -1.01653 11071 ft 299 kts 353°
2026-05-04 19:06 52.45138 -1.01894 10544 ft 301 kts 356°
2026-05-04 19:06 52.47238 -1.02058 10078 ft 301 kts 356°
2026-05-04 19:06 52.49313 -1.02212 9586 ft 295 kts 356°
2026-05-04 19:07 52.51322 -1.02365 9085 ft 283 kts 355°
2026-05-04 19:07 52.53300 -1.02525 8621 ft 285 kts 355°
2026-05-04 19:07 52.55272 -1.02692 8199 ft 283 kts 355°
2026-05-04 19:07 52.57205 -1.02858 7827 ft 280 kts 355°
2026-05-04 19:08 52.59142 -1.03025 7452 ft 278 kts 355°
2026-05-04 19:08 52.61063 -1.03195 7127 ft 273 kts 355°
2026-05-04 19:08 52.62939 -1.03361 7040 ft 269 kts 355°
2026-05-04 19:08 52.64810 -1.03467 7034 ft 269 kts 357°
2026-05-04 19:09 52.66716 -1.03503 6574 ft 278 kts 358°
2026-05-04 19:09 52.68660 -1.03520 6120 ft 278 kts 358°
2026-05-04 19:09 52.70557 -1.03528 5727 ft 268 kts 358°
2026-05-04 19:09 52.72416 -1.03498 5340 ft 266 kts
2026-05-04 19:10 52.74248 -1.03300 5019 ft 261 kts
2026-05-04 19:10 52.76013 -1.03051 4643 ft 247 kts
2026-05-04 19:10 52.77667 -1.03061 4270 ft 230 kts 346°
2026-05-04 19:10 52.79076 -1.04038 3919 ft 219 kts 332°
2026-05-04 19:11 52.80405 -1.05304 3464 ft 215 kts 329°
2026-05-04 19:11 52.81647 -1.06521 3182 ft 204 kts 328°
2026-05-04 19:11 52.82711 -1.07977 2953 ft 195 kts 308°
2026-05-04 19:11 52.83252 -1.09971 2811 ft 191 kts 281°
2026-05-04 19:12 52.83363 -1.12130 2567 ft 188 kts 274°
2026-05-04 19:12 52.83407 -1.16448 2059 ft 187 kts 269°
2026-05-04 19:12 52.83357 -1.18583 1814 ft 186 kts 269°
2026-05-04 19:13 52.83312 -1.20724 1553 ft 186 kts 268°
2026-05-04 19:13 52.83274 -1.22762 1276 ft 168 kts 269°
2026-05-04 19:13 52.83239 -1.24686 1067 ft 168 kts 269°
2026-05-04 19:13 52.83204 -1.26610 815 ft 167 kts 269°
2026-05-04 19:14 52.83175 -1.28529 629 ft 167 kts 268°
2026-05-04 19:14 52.83140 -1.30457 389 ft 167 kts 268°
2026-05-04 19:14 52.83108 -1.32289 311 ft 140 kts 269°
2026-05-04 19:14 52.83086 -1.33564 316 ft 82 kts 269°
2026-05-04 19:15 52.83073 -1.34221 311 ft 46 kts 268°
2026-05-04 19:15 52.83054 -1.34631 312 ft 13 kts 240°
2026-05-04 19:15 52.83024 -1.34654 310 ft 4 kts 192°
2026-05-04 19:15 52.82995 -1.34660 312 ft 4 kts 186°
2026-05-04 19:16 52.82970 -1.34660 311 ft 3 kts 178°
2026-05-04 19:16 52.82950 -1.34659 313 ft 2 kts 178°
2026-05-04 19:16 52.82945 -1.34659 310 ft 0 kts 178°
2026-05-04 19:16 52.82943 -1.34658 310 ft 1 kts 174°
2026-05-04 19:17 52.82935 -1.34652 310 ft 3 kts 156°
2026-05-04 19:17 52.82921 -1.34630 313 ft 3 kts 129°
2026-05-04 19:17 52.82914 -1.34604 312 ft 2 kts 108°
2026-05-04 19:17 52.82911 -1.34578 310 ft 2 kts 101°
2026-05-04 19:18 52.82909 -1.34554 310 ft 2 kts 96°
2026-05-04 19:18 52.82909 -1.34543 310 ft 0 kts 92°
2026-05-04 19:19 52.82909 -1.34526 311 ft 2 kts 90°
2026-05-04 19:19 52.82909 -1.34508 312 ft 2 kts 90°
2026-05-04 19:20 52.82907 -1.34478 311 ft 4 kts 99°
2026-05-04 19:20 52.82893 -1.34436 314 ft 5 kts 128°
2026-05-04 19:20 52.82854 -1.34434 311 ft 8 kts 207°
2026-05-04 19:20 52.82834 -1.34518 309 ft 5 kts 264°
2026-05-04 19:21 52.82831 -1.34591 308 ft 9 kts 267°
2026-05-04 19:21 52.82829 -1.34720 308 ft 13 kts 267°
2026-05-04 19:21 52.82817 -1.34771 308 ft 2 kts 214°
2026-05-04 19:21 52.82796 -1.34771 310 ft 6 kts 180°
2026-05-04 19:22 52.82758 -1.34771 310 ft 1 kts 179°
2026-05-04 19:22 52.82752 -1.34770 308 ft 0 kts 178°
2026-05-04 19:22 52.82750 -1.34770 308 ft 0 kts 178°